GW4318 Weather Reports


Display with metric or nautical units.
time (UTC)temp
F
wind
direction
speed
MPH
gust
MPH
rain 1hr
in
rain 24hr
in
rain mn
in
humidity
%
barometer
mb
20260510172518 67 227 2.0 6.0 0.00 0.51 0.00 72 1012.4
20260510171518 68 202 2.0 6.0 0.00 0.51 0.00 72 1012.5
20260510170518 68 137 2.0 7.0 0.00 0.51 0.00 72 1012.5
20260510165518 67 179 2.0 6.0 0.00 0.51 0.00 74 1012.4
20260510164519 67 210 2.0 8.0 0.00 0.51 0.00 73 1012.4
20260510163539 67 237 2.0 8.0 0.00 0.51 0.00 75 1012.6
20260510162519 66 189 1.0 4.0 0.00 0.51 0.00 77 1012.6
20260510161516 65 142 3.0 8.0 0.00 0.51 0.00 78 1012.7
20260510160516 64 238 3.0 8.0 0.00 0.51 0.00 79 1012.9
20260510155519 63 133 3.0 7.0 0.00 0.51 0.00 79 1012.9
20260510154519 63 125 3.0 8.0 0.00 0.51 0.00 80 1013.0
20260510153520 63 282 2.0 6.0 0.00 0.52 0.00 80 1012.9
20260510152517 62 249 2.0 6.0 0.00 0.52 0.00 81 1013.0
20260510151517 61 131 3.0 7.0 0.00 0.52 0.00 83 1013.1
20260510150559 60 117 3.0 7.0 0.00 0.52 0.00 85 1013.0
20260510145520 60 121 3.0 6.0 0.00 0.52 0.00 87 1013.0
20260510144543 58 218 2.0 4.0 0.00 0.52 0.00 89 1013.1
20260510143523 58 110 1.0 3.0 0.00 0.53 0.00 90 1013.2
20260510142523 58 150 1.0 3.0 0.00 0.53 0.00 90 1013.3
20260510141538 58 227 2.0 4.0 0.00 0.53 0.00 90 1013.3
20260510140518 57 106 2.0 5.0 0.00 0.54 0.00 90 1013.2
20260510135518 57 273 2.0 5.0 0.00 0.55 0.00 90 1013.1
20260510134538 58 159 2.0 6.0 0.00 0.55 0.00 89 1012.9
20260510133519 58 294 3.0 9.0 0.00 0.55 0.00 89 1012.8
20260510132518 57 237 2.0 4.0 0.00 0.55 0.00 92 1012.7
20260510131526 56 201 1.0 3.0 0.00 0.55 0.00 93 1012.7
20260510130524 55 61 1.0 2.0 0.00 0.55 0.00 95 1012.7
20260510125525 54 100 2.0 3.0 0.00 0.55 0.00 96 1012.8
20260510124525 54 222 2.0 4.0 0.00 0.55 0.00 97 1012.8
20260510123523 54 178 2.0 5.0 0.00 0.55 0.00 98 1012.7
20260510122525 53 295 2.0 4.0 0.00 0.55 0.00 99 1012.9
20260510121525 53 286 2.0 5.0 0.00 0.56 0.00 99 1012.9
20260510120526 53 77 2.0 4.0 0.00 0.56 0.00 100 1013.0
20260510115525 53 289 1.0 4.0 0.00 0.56 0.00 100 1012.7
20260510114525 52 290 1.0 2.0 0.00 0.56 0.00 99 1012.8
20260510113546 52 297 2.0 3.0 0.00 0.57 0.00 99 1013.0
20260510112526 52 302 1.0 2.0 0.00 0.57 0.00 99 1012.3
20260510111526 52 72 2.0 3.0 0.00 0.57 0.00 99 1012.2
20260510110526 52 104 2.0 3.0 0.00 0.57 0.00 99 1012.2
20260510105528 51 350 1.0 2.0 0.00 0.57 0.00 99 1012.5
20260510104527 51 86 1.0 2.0 0.00 0.57 0.00 99 1012.2
20260510103526 51 75 2.0 3.0 0.00 0.57 0.00 99 1012.4
20260510102527 51 39 1.0 3.0 0.00 0.57 0.00 99 1012.4
20260510101527 50 57 1.0 3.0 0.00 0.57 0.00 99 1012.6
20260510100527 50 76 2.0 4.0 0.00 0.57 0.00 99 1012.4
20260510095527 49 63 2.0 3.0 0.00 0.57 0.00 99 1012.5
20260510094547 49 65 0.0 2.0 0.00 0.57 0.00 99 1012.6
20260510093527 49 58 1.0 2.0 0.00 0.57 0.00 99 1012.3
20260510092527 49 35 0.0 2.0 0.00 0.57 0.00 99 1012.2
20260510090527 49 93 0.0 1.0 0.00 0.57 0.00 99 1011.9
20260510085528 50 57 0.0 1.0 0.00 0.57 0.00 99 1011.9
20260510084527 50 29 1.0 1.0 0.00 0.57 0.00 99 1011.7
20260510083528 50 330 1.0 2.0 0.00 0.57 0.00 99 1011.8
20260510082528 50 96 1.0 2.0 0.00 0.57 0.00 99 1011.8
20260510081529 50 61 1.0 3.0 0.00 0.57 0.00 99 1011.9
20260510080530 51 49 1.0 3.0 0.00 0.57 0.00 99 1011.8
20260510075528 51 60 1.0 3.0 0.00 0.57 0.00 99 1011.8
20260510074529 51 98 1.0 3.0 0.00 0.57 0.00 99 1011.9
20260510073529 51 315 1.0 3.0 0.00 0.57 0.00 99 1011.9
20260510072529 51 87 1.0 3.0 0.00 0.57 0.00 99 1011.6
20260510071530 51 64 1.0 3.0 0.00 0.57 0.00 99 1011.5
20260510070529 51 331 0.0 1.0 0.00 0.57 0.00 99 1011.4
20260510065529 51 34 1.0 2.0 0.00 0.57 0.00 99 1011.3
20260510064530 51 61 1.0 2.0 0.00 0.57 0.00 99 1011.3
20260510063531 51 32 1.0 1.0 0.00 0.57 0.00 99 1011.7
20260510062551 51 353 1.0 2.0 0.00 0.57 0.00 99 1011.9
20260510061529 51 58 1.0 2.0 0.00 0.57 0.00 99 1011.7
20260510060550 51 14 0.0 0.0 0.00 0.57 0.00 99 1011.7
20260510055531 51 11 1.0 1.0 0.00 0.57 0.00 99 1011.5
20260510054612 51 355 1.0 1.0 0.00 0.57 0.00 99 1011.7
20260510053530 51 52 0.0 1.0 0.00 0.57 0.00 99 1011.9
20260510052551 51 14 1.0 1.0 0.00 0.57 0.00 99 1011.9
20260510051519 51 20 0.0 1.0 0.00 0.57 0.00 99 1011.9
20260510050532 51 51 1.0 2.0 0.00 0.57 0.00 99 1011.9
20260510045531 51 38 0.0 1.0 0.00 0.57 0.00 99 1011.9
20260510044531 51 54 0.0 2.0 0.00 0.57 0.00 99 1012.0
20260510043531 51 23 0.0 1.0 0.00 0.57 0.00 99 1012.2
20260510042531 51 43 1.0 2.0 0.00 0.57 0.00 99 1012.2
20260510041516 51 347 0.0 2.0 0.00 0.57 0.00 99 1012.1
20260510040557 51 292 1.0 2.0 0.00 0.57 0.00 99 1011.7
20260510035532 51 79 0.0 2.0 0.00 0.57 0.57 99 1011.9
20260510034533 51 95 0.0 1.0 0.00 0.57 0.57 99 1012.0
20260510033537 51 36 1.0 2.0 0.00 0.57 0.57 99 1012.1
20260510032531 51 51 1.0 2.0 0.00 0.57 0.57 99 1012.2
20260510031534 51 39 0.0 1.0 0.00 0.57 0.57 99 1012.3
20260510030517 52 354 1.0 1.0 0.00 0.57 0.57 99 1012.5
20260510025517 52 355 1.0 1.0 0.00 0.57 0.57 99 1012.4
20260510024517 52 317 1.0 4.0 0.00 0.57 0.57 99 1012.5
20260510023517 52 38 0.0 2.0 0.00 0.57 0.57 99 1012.4
20260510022518 52 81 1.0 3.0 0.00 0.57 0.57 99 1012.5
20260510021518 52 88 2.0 3.0 0.00 0.57 0.57 99 1012.6
20260510020518 52 80 2.0 4.0 0.00 0.57 0.57 99 1012.7
20260510015518 52 292 2.0 5.0 0.00 0.57 0.57 99 1012.7
20260510014538 52 52 1.0 3.0 0.00 0.57 0.57 99 1012.7
20260510013519 51 99 2.0 3.0 0.01 0.57 0.57 99 1012.6
20260510012539 50 67 1.0 2.0 0.02 0.57 0.57 99 1012.8
20260510011519 50 8 1.0 2.0 0.02 0.57 0.57 99 1012.9
20260510010540 50 38 1.0 1.0 0.04 0.57 0.57 99 1012.7
20260510005519 49 54 1.0 2.0 0.05 0.57 0.57 99 1012.7
20260510004519 49 50 0.0 1.0 0.07 0.57 0.57 99 1012.7
20260510003519 49 38 0.0 1.0 0.08 0.57 0.57 99 1012.7
20260510002534 49 15 0.0 1.0 0.10 0.56 0.56 99 1012.8
20260510001522 49 46 0.0 1.0 0.13 0.55 0.55 99 1012.9
20260510000521 49 334 1.0 1.0 0.16 0.54 0.54 99 1013.0
20260509235539 49 3 1.0 1.0 0.16 0.52 0.52 99 1013.1
20260509234519 49 293 0.0 1.0 0.16 0.50 0.50 99 1013.1
20260509233520 49 355 0.0 1.0 0.15 0.48 0.48 99 1013.0
20260509232520 49 73 0.0 2.0 0.14 0.46 0.46 99 1013.0
20260509231520 49 4 1.0 1.0 0.11 0.42 0.42 99 1012.9
20260509230520 49 135 0.0 2.0 0.07 0.38 0.38 99 1012.8
20260509225540 49 40 0.0 1.0 0.06 0.36 0.36 99 1012.6
20260509224522 49 22 0.0 1.0 0.05 0.35 0.35 99 1012.8
20260509223521 49 352 0.0 1.0 0.05 0.33 0.33 99 1012.7
20260509222521 49 9 1.0 1.0 0.05 0.31 0.31 99 1012.6
20260509221540 49 32 0.0 2.0 0.06 0.31 0.31 99 1012.7
20260509220521 49 357 1.0 2.0 0.10 0.31 0.31 99 1012.7
20260509215602 49 84 1.0 2.0 0.13 0.30 0.30 99 1012.8
20260509214522 50 336 1.0 2.0 0.14 0.29 0.29 99 1012.8
20260509213522 50 354 1.0 2.0 0.16 0.29 0.29 99 1012.7
20260509212523 50 21 1.0 1.0 0.17 0.27 0.27 99 1012.7
20260509211523 50 36 1.0 2.0 0.17 0.25 0.25 99 1012.7
20260509210522 50 3 1.0 2.0 0.13 0.20 0.20 100 1012.5
20260509205525 51 12 1.0 3.0 0.11 0.17 0.17 99 1012.6
20260509204524 51 10 1.0 2.0 0.09 0.15 0.15 99 1012.5
20260509203619 52 358 1.0 2.0 0.06 0.13 0.13 98 1012.5
20260509202523 53 353 0.0 1.0 0.04 0.10 0.10 96 1012.6
20260509201543 53 337 1.0 1.0 0.02 0.08 0.08 95 1012.6
20260509200551 54 24 1.0 2.0 0.01 0.08 0.08 92 1012.4
20260509195523 54 29 0.0 1.0 0.00 0.07 0.07 91 1012.6
20260509194523 54 358 1.0 2.0 0.00 0.07 0.07 91 1012.5
20260509193523 54 180 1.0 3.0 0.00 0.07 0.07 89 1012.6
20260509192524 54 318 1.0 2.0 0.00 0.07 0.07 90 1012.4
20260509191523 54 183 1.0 2.0 0.00 0.07 0.07 90 1012.3
20260509190525 54 115 1.0 2.0 0.00 0.07 0.07 92 1012.3
20260509185559 53 345 1.0 2.0 0.00 0.07 0.07 93 1012.2
20260509184524 53 352 1.0 2.0 0.00 0.07 0.07 93 1012.3
20260509183527 53 350 1.0 2.0 0.00 0.07 0.07 93 1012.4
20260509182524 52 349 1.0 2.0 0.00 0.07 0.07 94 1012.7
20260509181524 52 352 2.0 3.0 0.00 0.07 0.07 93 1013.2
20260509180544 52 341 1.0 1.0 0.00 0.07 0.07 94 1013.5
20260509175544 52 2 1.0 2.0 0.00 0.07 0.07 94 1013.4
20260509174525 52 340 1.0 2.0 0.00 0.07 0.07 95 1013.4
20260509173526 52 334 2.0 3.0 0.00 0.07 0.07 94 1013.3